Location: New Plymouth
(39.0670°S, 174.0830°E)
Time: 08:40:29
(UTC+13:00)

STRAND 1 - Pass Details

Date: 04 September 2019
Orbit: 769 x 780 km, 98.5° (Epoch: 17 October)

Event Time Altitude Azimuth Distance (km) Brightness Sun altitude
Rises 20:31:06 0° 326° (NW) 3,256 ? -29.2°
Reaches altitude 10° 20:34:40 10° 300° (WNW) 2,342 ? -29.9°
Maximum altitude 20:37:11 14° 270° (W) 2,110 ? -30.4°
Drops below altitude 10° 20:39:42 10° 241° (WSW) 2,360 ? -30.8°
Sets 20:43:21 0° 215° (SW) 3,300 ? -31.5°
